Time,TemperatureF,DewpointF,PressureIn,WindDirection,WindDirectionDegrees,WindSpeedMPH,WindSpeedGustMPH,Humidity,HourlyPrecipIn,Conditions,Clouds,dailyrainin,SolarRadiationWatts/m^2,SoftwareType,DateUTC
2013-02-05 00:00:00,23.4,12.2,29.96,WNW,303,0.0,0.0,62,0.00,,,0.00,0.0,meteohub,2013-02-05 05:00:00,
2013-02-05 00:01:00,23.4,12.2,29.96,WNW,303,0.0,0.0,62,0.00,,,0.00,0.0,meteohub,2013-02-05 05:01:00,
2013-02-05 00:03:00,23.4,12.2,29.96,WNW,303,0.0,0.0,62,0.00,,,0.00,0.0,meteohub,2013-02-05 05:03:00,
2013-02-05 00:08:00,23.4,11.8,29.96,WNW,303,0.0,0.0,61,0.00,,,0.00,0.0,meteohub,2013-02-05 05:08:00,
2013-02-05 00:13:00,23.5,12.0,29.96,WNW,303,0.0,0.0,61,0.00,,,0.00,0.0,meteohub,2013-02-05 05:13:00,
2013-02-05 00:19:00,23.7,12.6,29.96,WNW,303,0.0,0.0,62,0.00,,,0.00,0.0,meteohub,2013-02-05 05:19:00,
2013-02-05 00:24:00,23.7,12.9,29.96,WNW,303,0.0,0.0,63,0.00,,,0.00,0.0,meteohub,2013-02-05 05:24:00,
2013-02-05 00:29:00,23.7,12.9,29.96,WNW,303,0.0,1.0,63,0.00,,,0.00,0.0,meteohub,2013-02-05 05:29:00,
2013-02-05 00:34:00,24.1,12.9,29.95,WNW,303,0.0,4.0,62,0.00,,,0.00,0.0,meteohub,2013-02-05 05:34:00,
2013-02-05 00:39:00,24.3,13.5,29.95,WNW,303,0.0,4.0,63,0.00,,,0.00,0.0,meteohub,2013-02-05 05:39:00,
2013-02-05 00:44:00,24.4,14.4,29.95,WNW,303,0.0,4.0,65,0.00,,,0.00,0.0,meteohub,2013-02-05 05:44:00,
2013-02-05 00:49:00,24.6,14.5,29.94,WNW,303,0.0,4.0,65,0.00,,,0.00,0.0,meteohub,2013-02-05 05:49:00,
2013-02-05 00:55:00,24.4,14.0,29.95,WNW,303,0.0,2.0,64,0.00,,,0.00,0.0,meteohub,2013-02-05 05:55:00,
2013-02-05 01:00:00,24.3,14.2,29.95,WNW,301,0.0,0.0,65,0.00,,,0.00,0.0,meteohub,2013-02-05 06:00:00,
2013-02-05 01:05:00,24.1,14.0,29.95,WNW,301,0.0,0.0,65,0.00,,,0.00,0.0,meteohub,2013-02-05 06:05:00,
2013-02-05 01:10:00,24.1,14.4,29.95,WNW,301,0.0,0.0,66,0.00,,,0.00,0.0,meteohub,2013-02-05 06:10:00,
2013-02-05 01:15:00,24.3,14.9,29.94,WNW,301,0.0,0.0,67,0.00,,,0.00,0.0,meteohub,2013-02-05 06:15:00,
2013-02-05 01:20:00,24.3,14.5,29.95,WNW,301,0.0,1.0,66,0.00,,,0.00,0.0,meteohub,2013-02-05 06:20:00,
2013-02-05 01:25:00,24.3,14.5,29.95,WNW,301,0.0,1.0,66,0.00,,,0.00,0.0,meteohub,2013-02-05 06:25:00,
2013-02-05 01:30:00,24.6,14.5,29.95,WNW,300,0.0,0.0,65,0.00,,,0.00,0.0,meteohub,2013-02-05 06:30:00,
2013-02-05 01:36:00,24.6,14.5,29.95,WNW,300,0.0,0.0,65,0.00,,,0.00,0.0,meteohub,2013-02-05 06:36:00,
2013-02-05 01:41:00,24.8,15.1,29.95,WNW,300,0.0,1.0,66,0.00,,,0.00,0.0,meteohub,2013-02-05 06:41:00,
2013-02-05 01:46:00,25.0,14.9,29.95,WNW,300,0.0,1.0,65,0.00,,,0.00,0.0,meteohub,2013-02-05 06:46:00,
2013-02-05 01:51:00,25.2,14.7,29.96,WNW,300,0.0,1.0,64,0.00,,,0.00,0.0,meteohub,2013-02-05 06:51:00,
2013-02-05 01:56:00,25.7,16.0,29.96,WNW,300,0.0,0.0,66,0.00,,,0.00,0.0,meteohub,2013-02-05 06:56:00,
2013-02-05 02:01:00,25.9,16.5,29.96,WNW,300,0.0,0.0,67,0.00,,,0.00,0.0,meteohub,2013-02-05 07:01:00,
2013-02-05 02:06:00,25.9,16.5,29.95,WNW,300,0.0,0.0,67,0.00,,,0.00,0.0,meteohub,2013-02-05 07:06:00,
2013-02-05 02:12:00,26.2,16.5,29.95,WNW,300,0.0,0.0,66,0.00,,,0.00,0.0,meteohub,2013-02-05 07:12:00,
2013-02-05 02:17:00,26.2,16.5,29.95,WNW,300,0.0,0.0,66,0.00,,,0.00,0.0,meteohub,2013-02-05 07:17:00,
2013-02-05 02:22:00,26.2,16.2,29.95,WNW,300,0.0,1.0,65,0.00,,,0.00,0.0,meteohub,2013-02-05 07:22:00,
2013-02-05 02:27:00,26.1,16.0,29.95,WNW,300,0.0,1.0,65,0.00,,,0.00,0.0,meteohub,2013-02-05 07:27:00,
2013-02-05 02:32:00,25.9,16.2,29.95,WNW,300,0.0,1.0,66,0.00,,,0.00,0.0,meteohub,2013-02-05 07:32:00,
2013-02-05 02:37:00,26.1,16.3,29.95,WNW,300,0.0,0.0,66,0.00,,,0.00,0.0,meteohub,2013-02-05 07:37:00,
2013-02-05 02:42:00,26.2,16.5,29.95,WNW,302,0.0,4.0,66,0.00,,,0.00,0.0,meteohub,2013-02-05 07:42:00,
2013-02-05 02:47:00,26.4,16.3,29.95,SW,221,0.0,4.0,65,0.00,,,0.00,0.0,meteohub,2013-02-05 07:47:00,
2013-02-05 02:52:00,27.0,17.1,29.95,WNW,298,2.0,5.0,66,0.00,,,0.00,0.0,meteohub,2013-02-05 07:52:00,
2013-02-05 02:57:00,27.1,17.2,29.95,WNW,298,2.0,5.0,66,0.00,,,0.00,0.0,meteohub,2013-02-05 07:57:00,
2013-02-05 03:02:00,27.1,16.9,29.94,WNW,297,1.0,6.0,65,0.00,,,0.00,0.0,meteohub,2013-02-05 08:02:00,
2013-02-05 03:07:00,27.1,16.9,29.94,WNW,300,2.0,6.0,65,0.00,,,0.00,0.0,meteohub,2013-02-05 08:07:00,
2013-02-05 03:12:00,27.3,17.8,29.94,WNW,300,0.0,6.0,67,0.00,,,0.00,0.0,meteohub,2013-02-05 08:12:00,
2013-02-05 03:17:00,27.3,18.1,29.94,WNW,300,0.0,5.0,68,0.00,,,0.00,0.0,meteohub,2013-02-05 08:17:00,
2013-02-05 03:22:00,27.5,18.7,29.94,WNW,300,2.0,4.0,69,0.00,,,0.00,0.0,meteohub,2013-02-05 08:22:00,
2013-02-05 03:27:00,27.3,18.1,29.94,WNW,300,0.0,4.0,68,0.00,,,0.00,0.0,meteohub,2013-02-05 08:27:00,
2013-02-05 03:32:00,27.3,18.5,29.94,WNW,300,0.0,4.0,69,0.00,,,0.00,0.0,meteohub,2013-02-05 08:32:00,
2013-02-05 03:37:00,27.1,18.3,29.94,WNW,300,0.0,4.0,69,0.00,,,0.00,0.0,meteohub,2013-02-05 08:37:00,
2013-02-05 03:42:00,27.3,18.9,29.94,WNW,300,0.0,1.0,70,0.00,,,0.00,0.0,meteohub,2013-02-05 08:42:00,
2013-02-05 03:47:00,27.5,18.7,29.94,WNW,300,0.0,1.0,69,0.00,,,0.00,0.0,meteohub,2013-02-05 08:47:00,
2013-02-05 03:52:00,27.7,19.2,29.94,WNW,300,0.0,1.0,70,0.00,,,0.00,0.0,meteohub,2013-02-05 08:52:00,
2013-02-05 03:57:00,27.7,19.2,29.94,WNW,300,0.0,1.0,70,0.00,,,0.00,0.0,meteohub,2013-02-05 08:57:00,
2013-02-05 04:02:00,27.7,19.2,29.94,WNW,300,0.0,0.0,70,0.00,,,0.00,0.0,meteohub,2013-02-05 09:02:00,
2013-02-05 04:07:00,27.5,19.4,29.94,NNE,27,0.0,1.0,71,0.00,,,0.00,0.0,meteohub,2013-02-05 09:07:00,
2013-02-05 04:12:00,27.5,19.6,29.94,NNE,27,0.0,1.0,72,0.00,,,0.00,0.0,meteohub,2013-02-05 09:12:00,
2013-02-05 04:17:00,27.3,19.6,29.95,NNE,27,0.0,1.0,72,0.00,,,0.00,0.0,meteohub,2013-02-05 09:17:00,
2013-02-05 04:22:00,27.3,19.8,29.94,NNE,27,0.0,1.0,73,0.00,,,0.00,0.0,meteohub,2013-02-05 09:22:00,
2013-02-05 04:27:00,27.3,19.8,29.94,NNE,27,0.0,0.0,73,0.00,,,0.00,0.0,meteohub,2013-02-05 09:27:00,
2013-02-05 04:32:00,27.3,20.1,29.94,NNE,27,0.0,1.0,74,0.00,,,0.00,0.0,meteohub,2013-02-05 09:32:00,
2013-02-05 04:37:00,27.3,20.1,29.94,NNE,27,0.0,1.0,74,0.00,,,0.00,0.0,meteohub,2013-02-05 09:37:00,
2013-02-05 04:42:00,27.1,19.9,29.94,NNE,27,0.0,1.0,74,0.00,,,0.00,0.0,meteohub,2013-02-05 09:42:00,
2013-02-05 04:47:00,27.1,20.3,29.94,NNE,27,0.0,1.0,75,0.00,,,0.00,0.0,meteohub,2013-02-05 09:47:00,
2013-02-05 04:52:00,27.0,20.1,29.94,NNE,27,1.0,2.0,75,0.00,,,0.00,0.0,meteohub,2013-02-05 09:52:00,
2013-02-05 04:57:00,27.0,20.5,29.94,NNE,27,2.0,4.0,76,0.00,,,0.00,0.0,meteohub,2013-02-05 09:57:00,
2013-02-05 05:02:00,26.8,20.3,29.94,NNE,27,3.0,4.0,76,0.00,,,0.00,0.0,meteohub,2013-02-05 10:02:00,
2013-02-05 05:07:00,26.6,20.1,29.94,NNE,27,0.0,4.0,76,0.00,,,0.00,0.0,meteohub,2013-02-05 10:07:00,
2013-02-05 05:12:00,26.4,19.9,29.94,NNE,27,3.0,4.0,76,0.00,,,0.00,0.0,meteohub,2013-02-05 10:12:00,
2013-02-05 05:17:00,26.2,19.9,29.94,NNE,28,4.0,4.0,77,0.00,,,0.00,0.0,meteohub,2013-02-05 10:17:00,
2013-02-05 05:22:00,26.2,19.9,29.94,NNE,32,4.0,5.0,77,0.00,,,0.00,0.0,meteohub,2013-02-05 10:22:00,
2013-02-05 05:27:00,26.2,19.9,29.93,NE,37,5.0,5.0,77,0.00,,,0.00,0.0,meteohub,2013-02-05 10:27:00,
2013-02-05 05:32:00,26.2,19.9,29.94,North,5,2.0,6.0,77,0.00,,,0.00,0.0,meteohub,2013-02-05 10:32:00,
2013-02-05 05:37:00,26.2,19.9,29.94,NNE,28,5.0,6.0,77,0.00,,,0.00,0.0,meteohub,2013-02-05 10:37:00,
2013-02-05 05:42:00,26.1,20.1,29.93,NNE,18,3.0,6.0,78,0.00,,,0.00,0.0,meteohub,2013-02-05 10:42:00,
2013-02-05 05:47:00,26.1,20.1,29.94,NNE,23,3.0,7.0,78,0.00,,,0.00,0.0,meteohub,2013-02-05 10:47:00,
2013-02-05 05:52:00,26.1,20.1,29.93,North,9,2.0,7.0,78,0.00,,,0.00,0.0,meteohub,2013-02-05 10:52:00,
2013-02-05 05:57:00,26.1,20.5,29.93,North,5,3.0,7.0,79,0.00,,,0.00,0.0,meteohub,2013-02-05 10:57:00,
2013-02-05 06:02:00,26.1,20.5,29.94,North,5,1.0,6.0,79,0.00,,,0.00,0.0,meteohub,2013-02-05 11:02:00,
2013-02-05 06:07:00,26.1,20.5,29.94,North,5,0.0,5.0,79,0.00,,,0.00,0.0,meteohub,2013-02-05 11:07:00,
2013-02-05 06:12:00,26.1,20.7,29.94,North,5,1.0,5.0,80,0.00,,,0.00,0.0,meteohub,2013-02-05 11:12:00,
2013-02-05 06:17:00,26.2,20.8,29.94,North,5,3.0,5.0,80,0.00,,,0.00,0.0,meteohub,2013-02-05 11:17:00,
2013-02-05 06:22:00,26.1,20.7,29.94,North,9,4.0,5.0,80,0.00,,,0.00,0.0,meteohub,2013-02-05 11:22:00,
2013-02-05 06:27:00,26.1,20.7,29.94,North,9,1.0,5.0,80,0.00,,,0.00,0.0,meteohub,2013-02-05 11:27:00,
2013-02-05 06:32:00,26.1,20.7,29.94,North,5,2.0,5.0,80,0.00,,,0.00,0.0,meteohub,2013-02-05 11:32:00,
2013-02-05 06:37:00,26.1,21.0,29.94,North,5,3.0,4.0,81,0.00,,,0.00,0.0,meteohub,2013-02-05 11:37:00,
2013-02-05 06:42:00,26.1,21.0,29.94,NNE,28,3.0,4.0,81,0.00,,,0.00,0.0,meteohub,2013-02-05 11:42:00,
2013-02-05 06:47:00,26.1,21.0,29.94,NNE,13,1.0,5.0,81,0.00,,,0.00,0.0,meteohub,2013-02-05 11:47:00,
2013-02-05 06:52:00,26.2,21.6,29.95,North,9,4.0,6.0,82,0.00,,,0.00,0.0,meteohub,2013-02-05 11:52:00,
2013-02-05 06:57:00,26.2,21.6,29.95,North,5,3.0,6.0,82,0.00,,,0.00,0.0,meteohub,2013-02-05 11:57:00,
2013-02-05 07:02:00,26.2,21.6,29.95,North,5,3.0,6.0,82,0.00,,,0.00,0.0,meteohub,2013-02-05 12:02:00,
2013-02-05 07:07:00,26.2,21.6,29.96,North,5,1.0,4.0,82,0.00,,,0.00,0.0,meteohub,2013-02-05 12:07:00,
2013-02-05 07:12:00,26.2,21.6,29.96,North,5,4.0,4.0,82,0.00,,,0.00,0.0,meteohub,2013-02-05 12:12:00,
2013-02-05 07:17:00,26.2,21.7,29.95,North,5,2.0,5.0,83,0.00,,,0.00,0.0,meteohub,2013-02-05 12:17:00,
2013-02-05 07:22:00,26.2,21.7,29.96,NNE,24,3.0,5.0,83,0.00,,,0.00,0.0,meteohub,2013-02-05 12:22:00,
2013-02-05 07:27:00,26.2,21.7,29.96,NNE,19,4.0,6.0,83,0.00,,,0.00,5.0,meteohub,2013-02-05 12:27:00,
2013-02-05 07:32:00,26.2,21.7,29.96,NNE,29,4.0,6.0,83,0.00,,,0.00,7.0,meteohub,2013-02-05 12:32:00,
2013-02-05 07:37:00,26.1,21.6,29.96,NNE,24,3.0,6.0,83,0.00,,,0.00,12.0,meteohub,2013-02-05 12:37:00,
2013-02-05 07:42:00,26.2,21.7,29.96,NNE,13,2.0,6.0,83,0.00,,,0.00,12.0,meteohub,2013-02-05 12:42:00,
2013-02-05 07:47:00,26.2,21.7,29.97,NNE,18,4.0,6.0,83,0.00,,,0.00,12.0,meteohub,2013-02-05 12:47:00,
2013-02-05 07:52:00,26.2,21.7,29.97,NNE,23,3.0,7.0,83,0.00,,,0.00,16.0,meteohub,2013-02-05 12:52:00,
2013-02-05 07:57:00,26.2,21.7,29.97,NNE,27,3.0,7.0,83,0.00,,,0.00,14.0,meteohub,2013-02-05 12:57:00,
2013-02-05 08:02:00,26.2,21.7,29.97,NNE,29,3.0,6.0,83,0.00,,,0.00,16.0,meteohub,2013-02-05 13:02:00,
2013-02-05 08:07:00,26.4,21.9,29.97,NNE,14,2.0,6.0,83,0.00,,,0.00,14.0,meteohub,2013-02-05 13:07:00,
2013-02-05 08:12:00,26.4,21.9,29.97,NNE,14,0.0,7.0,83,0.00,,,0.00,14.0,meteohub,2013-02-05 13:12:00,
2013-02-05 08:17:00,26.4,21.7,29.97,NNE,29,5.0,7.0,82,0.00,,,0.00,18.0,meteohub,2013-02-05 13:17:00,
2013-02-05 08:22:00,26.4,21.7,29.98,NNE,32,5.0,7.0,82,0.00,,,0.00,19.0,meteohub,2013-02-05 13:22:00,
2013-02-05 08:27:00,26.6,21.9,29.97,NNE,17,2.0,6.0,82,0.00,,,0.00,21.0,meteohub,2013-02-05 13:27:00,
2013-02-05 08:32:00,26.6,21.9,29.98,NNE,19,2.0,6.0,82,0.00,,,0.00,19.0,meteohub,2013-02-05 13:32:00,
2013-02-05 08:37:00,26.8,22.1,29.97,NNE,19,3.0,6.0,82,0.00,,,0.00,19.0,meteohub,2013-02-05 13:37:00,
2013-02-05 08:42:00,26.8,22.1,29.98,NNE,19,0.0,5.0,82,0.00,,,0.00,19.0,meteohub,2013-02-05 13:42:00,
2013-02-05 08:47:00,27.0,22.3,29.98,NNE,18,2.0,5.0,82,0.00,,,0.00,21.0,meteohub,2013-02-05 13:47:00,
2013-02-05 08:52:00,27.0,22.3,29.98,North,10,5.0,5.0,82,0.00,,,0.00,26.0,meteohub,2013-02-05 13:52:00,
2013-02-05 08:57:00,27.0,22.3,29.98,NNE,18,3.0,6.0,82,0.00,,,0.00,28.0,meteohub,2013-02-05 13:57:00,
2013-02-05 09:02:00,27.0,22.3,29.98,NNE,26,4.0,6.0,82,0.00,,,0.00,44.0,meteohub,2013-02-05 14:02:00,
2013-02-05 09:07:00,27.1,22.5,29.98,North,5,4.0,7.0,82,0.00,,,0.00,33.0,meteohub,2013-02-05 14:07:00,
2013-02-05 09:12:00,27.1,22.1,29.99,NNE,28,4.0,9.0,81,0.00,,,0.00,32.0,meteohub,2013-02-05 14:12:00,
2013-02-05 09:17:00,27.0,21.9,29.98,North,0,4.0,10.0,81,0.00,,,0.00,33.0,meteohub,2013-02-05 14:17:00,
2013-02-05 09:22:00,27.0,21.9,29.98,NNE,25,2.0,10.0,81,0.00,,,0.00,35.0,meteohub,2013-02-05 14:22:00,
2013-02-05 09:27:00,27.0,21.6,29.98,NNE,19,5.0,10.0,80,0.00,,,0.00,37.0,meteohub,2013-02-05 14:27:00,
2013-02-05 09:32:00,27.0,21.9,29.98,NE,53,3.0,7.0,81,0.00,,,0.00,40.0,meteohub,2013-02-05 14:32:00,
2013-02-05 09:37:00,27.1,22.1,29.99,NNE,22,6.0,8.0,81,0.00,,,0.00,40.0,meteohub,2013-02-05 14:37:00,
2013-02-05 09:42:00,27.0,21.6,29.99,NNE,26,4.0,8.0,80,0.00,,,0.00,46.0,meteohub,2013-02-05 14:42:00,
2013-02-05 09:47:00,27.1,21.7,29.99,NNE,22,4.0,8.0,80,0.00,,,0.00,47.0,meteohub,2013-02-05 14:47:00,
2013-02-05 09:52:00,27.1,21.7,29.99,NNE,33,7.0,8.0,80,0.00,,,0.00,54.0,meteohub,2013-02-05 14:52:00,
2013-02-05 09:57:00,27.1,21.7,29.98,NNE,33,4.0,8.0,80,0.00,,,0.00,63.0,meteohub,2013-02-05 14:57:00,
2013-02-05 10:02:00,27.1,21.7,29.99,NE,36,2.0,8.0,80,0.00,,,0.00,63.0,meteohub,2013-02-05 15:02:00,
2013-02-05 10:07:00,27.3,21.9,29.99,NNE,26,3.0,7.0,80,0.00,,,0.00,58.0,meteohub,2013-02-05 15:07:00,
2013-02-05 10:12:00,27.7,22.1,29.99,NE,37,4.0,7.0,79,0.00,,,0.00,77.0,meteohub,2013-02-05 15:12:00,
2013-02-05 10:17:00,27.5,21.9,29.99,NNE,30,4.0,7.0,79,0.00,,,0.00,76.0,meteohub,2013-02-05 15:17:00,
2013-02-05 10:22:00,27.5,22.1,29.99,NNE,26,7.0,7.0,80,0.00,,,0.00,67.0,meteohub,2013-02-05 15:22:00,
2013-02-05 10:27:00,27.5,21.9,29.99,North,10,4.0,8.0,79,0.00,,,0.00,58.0,meteohub,2013-02-05 15:27:00,
2013-02-05 10:32:00,27.5,21.9,30.00,NNE,31,8.0,9.0,79,0.00,,,0.00,63.0,meteohub,2013-02-05 15:32:00,
2013-02-05 10:37:00,27.3,21.7,30.00,NE,35,2.0,11.0,79,0.00,,,0.00,69.0,meteohub,2013-02-05 15:37:00,
2013-02-05 10:42:00,27.7,22.1,29.99,NE,53,5.0,11.0,79,0.00,,,0.00,69.0,meteohub,2013-02-05 15:42:00,
2013-02-05 10:47:00,27.7,22.1,29.99,NE,37,8.0,10.0,79,0.00,,,0.00,67.0,meteohub,2013-02-05 15:47:00,
2013-02-05 10:52:00,27.7,21.7,29.99,ENE,71,4.0,11.0,78,0.00,,,0.00,86.0,meteohub,2013-02-05 15:52:00,
2013-02-05 10:57:00,27.7,21.7,29.99,NE,49,5.0,11.0,78,0.00,,,0.00,79.0,meteohub,2013-02-05 15:57:00,
2013-02-05 11:02:00,27.9,21.9,29.99,NE,51,4.0,11.0,78,0.00,,,0.00,86.0,meteohub,2013-02-05 16:02:00,
2013-02-05 11:07:00,27.7,21.4,29.99,NNE,18,7.0,8.0,77,0.00,,,0.00,77.0,meteohub,2013-02-05 16:07:00,
2013-02-05 11:12:00,27.7,21.4,29.99,NE,34,5.0,11.0,77,0.00,,,0.00,77.0,meteohub,2013-02-05 16:12:00,
2013-02-05 11:17:00,27.7,21.7,29.99,NE,46,5.0,11.0,78,0.00,,,0.00,76.0,meteohub,2013-02-05 16:17:00,
2013-02-05 11:22:00,27.7,21.7,29.99,NNE,29,5.0,11.0,78,0.00,,,0.00,76.0,meteohub,2013-02-05 16:22:00,
2013-02-05 11:27:00,27.9,21.9,29.98,NE,36,6.0,10.0,78,0.00,,,0.00,74.0,meteohub,2013-02-05 16:27:00,
2013-02-05 11:32:00,27.9,21.9,29.98,NNE,32,3.0,9.0,78,0.00,,,0.00,69.0,meteohub,2013-02-05 16:32:00,
2013-02-05 11:37:00,27.9,21.9,29.98,NE,38,5.0,9.0,78,0.00,,,0.00,67.0,meteohub,2013-02-05 16:37:00,
2013-02-05 11:42:00,28.0,22.1,29.98,North,0,4.0,8.0,78,0.00,,,0.00,74.0,meteohub,2013-02-05 16:42:00,
2013-02-05 11:47:00,28.0,22.1,29.98,NE,34,4.0,7.0,78,0.00,,,0.00,83.0,meteohub,2013-02-05 16:47:00,
2013-02-05 11:52:00,28.2,22.3,29.98,NNE,32,7.0,8.0,78,0.00,,,0.00,79.0,meteohub,2013-02-05 16:52:00,
2013-02-05 11:57:00,28.0,22.1,29.97,NNE,22,5.0,8.0,78,0.00,,,0.00,77.0,meteohub,2013-02-05 16:57:00,
2013-02-05 12:02:00,28.0,22.1,29.97,ENE,63,3.0,8.0,78,0.00,,,0.00,76.0,meteohub,2013-02-05 17:02:00,
2013-02-05 12:07:00,28.0,22.1,29.97,NE,43,2.0,8.0,78,0.00,,,0.00,86.0,meteohub,2013-02-05 17:07:00,
2013-02-05 12:12:00,28.2,22.3,29.96,NNE,30,7.0,8.0,78,0.00,,,0.00,83.0,meteohub,2013-02-05 17:12:00,
2013-02-05 12:17:00,28.2,22.3,29.96,East,79,3.0,9.0,78,0.00,,,0.00,88.0,meteohub,2013-02-05 17:17:00,
2013-02-05 12:22:00,28.6,22.3,29.96,ENE,71,2.0,9.0,77,0.00,,,0.00,86.0,meteohub,2013-02-05 17:22:00,
2013-02-05 12:27:00,28.8,22.5,29.95,East,86,3.0,9.0,77,0.00,,,0.00,91.0,meteohub,2013-02-05 17:27:00,
2013-02-05 12:32:00,28.8,22.1,29.96,NNE,22,5.0,8.0,76,0.00,,,0.00,74.0,meteohub,2013-02-05 17:32:00,
2013-02-05 12:37:00,28.6,22.3,29.96,NNE,27,5.0,7.0,77,0.00,,,0.00,69.0,meteohub,2013-02-05 17:37:00,
2013-02-05 12:42:00,28.8,22.5,29.96,NE,39,2.0,6.0,77,0.00,,,0.00,70.0,meteohub,2013-02-05 17:42:00,
2013-02-05 12:47:00,28.8,22.5,29.95,NE,40,6.0,8.0,77,0.00,,,0.00,69.0,meteohub,2013-02-05 17:47:00,
2013-02-05 12:52:00,28.8,22.1,29.95,NE,44,4.0,8.0,76,0.00,,,0.00,84.0,meteohub,2013-02-05 17:52:00,
2013-02-05 12:57:00,28.8,22.5,29.95,East,80,4.0,8.0,77,0.00,,,0.00,76.0,meteohub,2013-02-05 17:57:00,
2013-02-05 13:02:00,28.8,22.1,29.95,ENE,72,4.0,7.0,76,0.00,,,0.00,86.0,meteohub,2013-02-05 18:02:00,
2013-02-05 13:07:00,28.9,22.3,29.95,NE,41,5.0,7.0,76,0.00,,,0.00,76.0,meteohub,2013-02-05 18:07:00,
2013-02-05 13:12:00,28.9,22.3,29.95,NE,45,3.0,7.0,76,0.00,,,0.00,76.0,meteohub,2013-02-05 18:12:00,
2013-02-05 13:17:00,28.9,22.3,29.96,ESE,111,1.0,6.0,76,0.00,,,0.00,72.0,meteohub,2013-02-05 18:17:00,
2013-02-05 13:22:00,29.1,22.5,29.95,ENE,74,4.0,6.0,76,0.00,,,0.00,81.0,meteohub,2013-02-05 18:22:00,
2013-02-05 13:27:00,29.1,22.8,29.95,NE,45,3.0,5.0,77,0.00,,,0.00,74.0,meteohub,2013-02-05 18:27:00,
2013-02-05 13:32:00,29.3,22.6,29.95,NE,49,5.0,5.0,76,0.00,,,0.00,76.0,meteohub,2013-02-05 18:32:00,
2013-02-05 13:37:00,29.3,23.0,29.95,NE,36,1.0,7.0,77,0.00,,,0.00,76.0,meteohub,2013-02-05 18:37:00,
2013-02-05 13:42:00,29.5,22.8,29.94,East,101,4.0,7.0,76,0.00,,,0.00,84.0,meteohub,2013-02-05 18:42:00,
2013-02-05 13:47:00,29.7,23.0,29.94,NNE,25,6.0,6.0,76,0.00,,,0.00,83.0,meteohub,2013-02-05 18:47:00,
2013-02-05 13:52:00,29.7,22.6,29.94,NE,36,2.0,7.0,75,0.00,,,0.00,95.0,meteohub,2013-02-05 18:52:00,
2013-02-05 13:57:00,29.7,23.0,29.94,NE,38,4.0,7.0,76,0.00,,,0.00,72.0,meteohub,2013-02-05 18:57:00,
2013-02-05 14:02:00,29.7,22.6,29.94,East,83,3.0,7.0,75,0.00,,,0.00,67.0,meteohub,2013-02-05 19:02:00,
2013-02-05 14:07:00,29.7,22.6,29.94,East,83,1.0,6.0,75,0.00,,,0.00,67.0,meteohub,2013-02-05 19:07:00,
2013-02-05 14:12:00,29.8,22.8,29.94,NE,47,2.0,6.0,75,0.00,,,0.00,63.0,meteohub,2013-02-05 19:12:00,
2013-02-05 14:17:00,29.7,22.5,29.94,East,101,2.0,4.0,74,0.00,,,0.00,58.0,meteohub,2013-02-05 19:17:00,
2013-02-05 14:22:00,29.7,22.6,29.94,NE,36,4.0,4.0,75,0.00,,,0.00,58.0,meteohub,2013-02-05 19:22:00,
2013-02-05 14:27:00,29.8,22.8,29.93,NE,51,5.0,6.0,75,0.00,,,0.00,63.0,meteohub,2013-02-05 19:27:00,
2013-02-05 14:32:00,29.7,22.6,29.93,NE,48,3.0,6.0,75,0.00,,,0.00,70.0,meteohub,2013-02-05 19:32:00,
2013-02-05 14:37:00,29.8,23.2,29.93,NNE,24,4.0,7.0,76,0.00,,,0.00,67.0,meteohub,2013-02-05 19:37:00,
2013-02-05 14:42:00,29.8,23.2,29.92,NE,34,5.0,7.0,76,0.00,,,0.00,70.0,meteohub,2013-02-05 19:42:00,
2013-02-05 14:47:00,29.8,23.2,29.92,ENE,69,2.0,7.0,76,0.00,,,0.00,70.0,meteohub,2013-02-05 19:47:00,
2013-02-05 14:52:00,29.8,22.8,29.92,ENE,73,4.0,7.0,75,0.00,,,0.00,63.0,meteohub,2013-02-05 19:52:00,
2013-02-05 14:57:00,29.8,22.8,29.92,ESE,119,0.0,7.0,75,0.00,,,0.00,60.0,meteohub,2013-02-05 19:57:00,
2013-02-05 15:02:00,30.2,23.5,29.92,NE,43,4.0,6.0,76,0.00,,,0.00,54.0,meteohub,2013-02-05 20:02:00,
2013-02-05 15:07:00,30.2,23.2,29.91,NE,53,5.0,6.0,75,0.00,,,0.00,46.0,meteohub,2013-02-05 20:07:00,
2013-02-05 15:12:00,30.2,23.2,29.91,East,86,3.0,6.0,75,0.00,,,0.00,46.0,meteohub,2013-02-05 20:12:00,
2013-02-05 15:17:00,29.8,22.6,29.91,ENE,63,3.0,6.0,74,0.00,,,0.00,46.0,meteohub,2013-02-05 20:17:00,
2013-02-05 15:22:00,29.8,22.8,29.91,ENE,66,4.0,6.0,75,0.00,,,0.00,40.0,meteohub,2013-02-05 20:22:00,
2013-02-05 15:27:00,29.8,22.8,29.91,ENE,69,2.0,6.0,75,0.00,,,0.00,32.0,meteohub,2013-02-05 20:27:00,
2013-02-05 15:32:00,30.0,23.0,29.91,ENE,66,1.0,6.0,75,0.00,,,0.00,35.0,meteohub,2013-02-05 20:32:00,
2013-02-05 15:37:00,30.0,23.0,29.91,SE,137,2.0,6.0,75,0.00,,,0.00,30.0,meteohub,2013-02-05 20:37:00,
2013-02-05 15:42:00,29.8,23.2,29.92,SE,127,2.0,5.0,76,0.00,,,0.00,26.0,meteohub,2013-02-05 20:42:00,
2013-02-05 15:47:00,30.0,23.4,29.92,SE,126,1.0,5.0,76,0.00,,,0.00,21.0,meteohub,2013-02-05 20:47:00,
2013-02-05 15:52:00,30.0,23.4,29.92,ESE,103,0.0,5.0,76,0.00,,,0.00,19.0,meteohub,2013-02-05 20:52:00,
2013-02-05 15:57:00,30.0,23.4,29.92,ESE,109,0.0,4.0,76,0.00,,,0.00,18.0,meteohub,2013-02-05 20:57:00,
2013-02-05 16:02:00,29.8,23.2,29.93,ESE,109,0.0,4.0,76,0.00,,,0.00,16.0,meteohub,2013-02-05 21:02:00,
2013-02-05 16:07:00,29.8,23.5,29.92,ENE,68,1.0,1.0,77,0.00,,,0.00,18.0,meteohub,2013-02-05 21:07:00,
2013-02-05 16:12:00,29.7,23.4,29.92,East,92,0.0,4.0,77,0.00,,,0.00,19.0,meteohub,2013-02-05 21:12:00,
2013-02-05 16:17:00,29.7,23.7,29.92,East,92,0.0,4.0,78,0.00,,,0.00,19.0,meteohub,2013-02-05 21:17:00,
2013-02-05 16:22:00,29.5,23.5,29.93,East,92,2.0,4.0,78,0.00,,,0.00,16.0,meteohub,2013-02-05 21:22:00,
2013-02-05 16:27:00,29.5,23.7,29.92,East,92,0.0,4.0,79,0.00,,,0.00,25.0,meteohub,2013-02-05 21:27:00,
2013-02-05 16:32:00,29.5,23.7,29.92,ENE,77,0.0,4.0,79,0.00,,,0.00,16.0,meteohub,2013-02-05 21:32:00,
2013-02-05 16:37:00,29.5,24.1,29.92,ESE,106,0.0,4.0,80,0.00,,,0.00,21.0,meteohub,2013-02-05 21:37:00,
2013-02-05 16:42:00,29.5,24.1,29.92,ESE,106,1.0,4.0,80,0.00,,,0.00,12.0,meteohub,2013-02-05 21:42:00,
2013-02-05 16:47:00,29.3,23.9,29.92,ESE,106,1.0,4.0,80,0.00,,,0.00,9.0,meteohub,2013-02-05 21:47:00,
2013-02-05 16:52:00,29.1,24.1,29.92,ESE,106,0.0,4.0,81,0.00,,,0.00,7.0,meteohub,2013-02-05 21:52:00,
2013-02-05 16:57:00,29.1,24.1,29.91,ESE,105,0.0,4.0,81,0.00,,,0.00,5.0,meteohub,2013-02-05 21:57:00,
2013-02-05 17:02:00,29.1,24.1,29.92,ENE,65,2.0,4.0,81,0.00,,,0.00,0.0,meteohub,2013-02-05 22:02:00,
2013-02-05 17:07:00,29.1,24.1,29.92,ENE,65,0.0,4.0,81,0.00,,,0.00,0.0,meteohub,2013-02-05 22:07:00,
2013-02-05 17:12:00,29.3,24.3,29.92,ENE,76,0.0,4.0,81,0.00,,,0.00,0.0,meteohub,2013-02-05 22:12:00,
2013-02-05 17:17:00,29.3,24.3,29.92,ENE,76,0.0,4.0,81,0.00,,,0.00,0.0,meteohub,2013-02-05 22:17:00,
2013-02-05 17:22:00,29.1,24.3,29.91,ENE,76,2.0,2.0,82,0.00,,,0.00,0.0,meteohub,2013-02-05 22:22:00,
2013-02-05 17:27:00,28.9,24.1,29.92,ENE,76,2.0,3.0,82,0.00,,,0.00,0.0,meteohub,2013-02-05 22:27:00,
2013-02-05 17:32:00,28.8,24.3,29.92,ENE,76,0.0,3.0,83,0.00,,,0.00,0.0,meteohub,2013-02-05 22:32:00,
2013-02-05 17:37:00,28.8,24.3,29.92,ENE,74,0.0,4.0,83,0.00,,,0.00,0.0,meteohub,2013-02-05 22:37:00,
2013-02-05 17:42:00,28.6,24.4,29.92,ENE,74,3.0,4.0,84,0.00,,,0.00,0.0,meteohub,2013-02-05 22:42:00,
2013-02-05 17:47:00,28.6,24.6,29.92,ENE,74,2.0,4.0,85,0.00,,,0.00,0.0,meteohub,2013-02-05 22:47:00,
2013-02-05 17:52:00,28.6,24.6,29.92,ENE,74,0.0,4.0,85,0.00,,,0.00,0.0,meteohub,2013-02-05 22:52:00,
2013-02-05 17:57:00,28.6,24.6,29.92,ENE,73,2.0,4.0,85,0.00,,,0.00,0.0,meteohub,2013-02-05 22:57:00,
2013-02-05 18:02:00,28.4,24.8,29.91,ENE,63,3.0,4.0,86,0.00,,,0.00,0.0,meteohub,2013-02-05 23:02:00,
2013-02-05 18:07:00,28.4,24.8,29.91,ENE,63,2.0,4.0,86,0.00,,,0.00,0.0,meteohub,2013-02-05 23:07:00,
2013-02-05 18:12:00,28.2,24.6,29.92,NE,42,0.0,4.0,86,0.00,,,0.00,0.0,meteohub,2013-02-05 23:12:00,
2013-02-05 18:17:00,28.0,24.6,29.92,NNE,26,4.0,6.0,87,0.00,,,0.00,0.0,meteohub,2013-02-05 23:17:00,
2013-02-05 18:22:00,28.0,24.6,29.92,NE,42,3.0,6.0,87,0.00,,,0.00,0.0,meteohub,2013-02-05 23:22:00,
2013-02-05 18:27:00,28.0,24.6,29.92,NNE,32,3.0,5.0,87,0.00,,,0.00,0.0,meteohub,2013-02-05 23:27:00,
2013-02-05 18:32:00,28.0,24.6,29.92,NNE,32,3.0,5.0,87,0.00,,,0.00,0.0,meteohub,2013-02-05 23:32:00,
2013-02-05 18:37:00,28.0,24.6,29.92,NE,44,3.0,6.0,87,0.00,,,0.00,0.0,meteohub,2013-02-05 23:37:00,
2013-02-05 18:42:00,28.0,24.6,29.92,NE,44,0.0,6.0,87,0.00,,,0.00,0.0,meteohub,2013-02-05 23:42:00,
2013-02-05 18:47:00,28.0,24.6,29.91,NE,44,3.0,6.0,87,0.00,,,0.00,0.0,meteohub,2013-02-05 23:47:00,
2013-02-05 18:52:00,28.2,24.8,29.92,NE,40,0.0,5.0,87,0.00,,,0.00,0.0,meteohub,2013-02-05 23:52:00,
2013-02-05 18:57:00,28.0,24.6,29.92,NE,40,4.0,4.0,87,0.00,,,0.00,0.0,meteohub,2013-02-05 23:57:00,
2013-02-05 19:02:00,28.0,24.6,29.92,NE,40,0.0,4.0,87,0.00,,,0.00,0.0,meteohub,2013-02-06 00:02:00,
2013-02-05 19:07:00,28.2,24.8,29.92,NE,40,2.0,5.0,87,0.00,,,0.00,0.0,meteohub,2013-02-06 00:07:00,
2013-02-05 19:12:00,28.2,24.8,29.92,NE,40,1.0,5.0,87,0.00,,,0.00,0.0,meteohub,2013-02-06 00:12:00,
2013-02-05 19:17:00,28.2,24.8,29.91,NE,40,4.0,5.0,87,0.00,,,0.00,0.0,meteohub,2013-02-06 00:17:00,
2013-02-05 19:23:00,28.0,24.4,29.91,NNE,31,0.0,5.0,86,0.00,,,0.00,0.0,meteohub,2013-02-06 00:23:00,
2013-02-05 19:28:00,28.2,24.6,29.92,NE,41,2.0,6.0,86,0.00,,,0.00,0.0,meteohub,2013-02-06 00:28:00,
2013-02-05 19:33:00,28.2,24.6,29.92,NE,41,0.0,6.0,86,0.00,,,0.00,0.0,meteohub,2013-02-06 00:33:00,
2013-02-05 19:38:00,28.4,24.8,29.92,NE,41,0.0,5.0,86,0.00,,,0.00,0.0,meteohub,2013-02-06 00:38:00,
2013-02-05 19:43:00,28.6,25.0,29.91,NE,41,2.0,4.0,86,0.00,,,0.00,0.0,meteohub,2013-02-06 00:43:00,
2013-02-05 19:48:00,28.6,25.0,29.91,NE,41,2.0,2.0,86,0.00,,,0.00,0.0,meteohub,2013-02-06 00:48:00,
2013-02-05 19:53:00,28.4,24.8,29.91,NE,39,3.0,4.0,86,0.00,,,0.00,0.0,meteohub,2013-02-06 00:53:00,
2013-02-05 19:58:00,28.2,24.6,29.92,NE,34,3.0,4.0,86,0.00,,,0.00,0.0,meteohub,2013-02-06 00:58:00,
2013-02-05 20:03:00,28.4,24.8,29.92,NE,34,0.0,6.0,86,0.00,,,0.00,0.0,meteohub,2013-02-06 01:03:00,
2013-02-05 20:08:00,28.6,25.0,29.91,NE,34,3.0,6.0,86,0.00,,,0.00,0.0,meteohub,2013-02-06 01:08:00,
2013-02-05 20:14:00,28.6,25.0,29.92,NE,34,2.0,6.0,86,0.00,,,0.00,0.0,meteohub,2013-02-06 01:14:00,
2013-02-05 20:19:00,28.6,25.0,29.92,NE,34,2.0,5.0,86,0.00,,,0.00,0.0,meteohub,2013-02-06 01:19:00,
2013-02-05 20:24:00,28.6,25.0,29.92,NE,34,2.0,5.0,86,0.00,,,0.00,0.0,meteohub,2013-02-06 01:24:00,
2013-02-05 20:29:00,28.6,25.0,29.92,NE,34,0.0,4.0,86,0.00,,,0.00,0.0,meteohub,2013-02-06 01:29:00,
2013-02-05 20:34:00,28.8,25.2,29.91,NE,34,2.0,4.0,86,0.00,,,0.00,0.0,meteohub,2013-02-06 01:34:00,
2013-02-05 20:39:00,28.6,25.0,29.91,NNE,30,3.0,4.0,86,0.00,,,0.00,0.0,meteohub,2013-02-06 01:39:00,
2013-02-05 20:44:00,28.6,25.0,29.91,NNE,27,4.0,4.0,86,0.00,,,0.00,0.0,meteohub,2013-02-06 01:44:00,
2013-02-05 20:49:00,28.6,25.0,29.92,NNE,22,3.0,6.0,86,0.00,,,0.00,0.0,meteohub,2013-02-06 01:49:00,
2013-02-05 20:54:00,28.4,24.8,29.92,East,82,3.0,6.0,86,0.00,,,0.00,0.0,meteohub,2013-02-06 01:54:00,
2013-02-05 21:00:00,28.4,24.8,29.92,North,5,3.0,6.0,86,0.00,,,0.00,0.0,meteohub,2013-02-06 02:00:00,
2013-02-05 21:05:00,28.4,25.0,29.91,ENE,62,2.0,6.0,87,0.00,,,0.00,0.0,meteohub,2013-02-06 02:05:00,
2013-02-05 21:10:00,28.4,25.0,29.91,NNE,12,4.0,5.0,87,0.00,,,0.00,0.0,meteohub,2013-02-06 02:10:00,
2013-02-05 21:15:00,28.4,25.0,29.92,NNE,12,4.0,5.0,87,0.00,,,0.00,0.0,meteohub,2013-02-06 02:15:00,
2013-02-05 21:20:00,28.6,25.2,29.91,NNE,12,2.0,4.0,87,0.00,,,0.00,0.0,meteohub,2013-02-06 02:20:00,
2013-02-05 21:25:00,28.4,25.0,29.91,NNE,13,2.0,4.0,87,0.00,,,0.00,0.0,meteohub,2013-02-06 02:25:00,
2013-02-05 21:30:00,28.4,25.0,29.91,NNE,13,1.0,4.0,87,0.00,,,0.00,0.0,meteohub,2013-02-06 02:30:00,
2013-02-05 21:36:00,28.2,24.8,29.91,NE,38,2.0,5.0,87,0.00,,,0.00,0.0,meteohub,2013-02-06 02:36:00,
2013-02-05 21:41:00,28.4,25.0,29.92,NE,38,0.0,5.0,87,0.00,,,0.00,0.0,meteohub,2013-02-06 02:41:00,
2013-02-05 21:46:00,28.6,25.2,29.92,NE,38,3.0,5.0,87,0.00,,,0.00,0.0,meteohub,2013-02-06 02:46:00,
2013-02-05 21:51:00,28.6,25.2,29.92,NE,38,3.0,4.0,87,0.00,,,0.00,0.0,meteohub,2013-02-06 02:51:00,
2013-02-05 21:56:00,28.4,24.8,29.92,NE,38,3.0,4.0,86,0.00,,,0.00,0.0,meteohub,2013-02-06 02:56:00,
2013-02-05 22:01:00,28.4,25.0,29.91,NNE,18,4.0,4.0,87,0.00,,,0.00,0.0,meteohub,2013-02-06 03:01:00,
2013-02-05 22:06:00,28.2,24.8,29.91,NNE,18,3.0,5.0,87,0.00,,,0.00,0.0,meteohub,2013-02-06 03:06:00,
2013-02-05 22:12:00,28.2,24.8,29.91,NNE,26,0.0,5.0,87,0.00,,,0.00,0.0,meteohub,2013-02-06 03:12:00,
2013-02-05 22:17:00,28.2,24.8,29.91,NNE,26,3.0,5.0,87,0.00,,,0.00,0.0,meteohub,2013-02-06 03:17:00,
2013-02-05 22:22:00,28.2,24.8,29.91,NNE,26,2.0,5.0,87,0.00,,,0.00,0.0,meteohub,2013-02-06 03:22:00,
2013-02-05 22:27:00,28.2,24.8,29.91,NNE,26,4.0,4.0,87,0.00,,,0.00,0.0,meteohub,2013-02-06 03:27:00,
2013-02-05 22:32:00,28.4,25.0,29.91,NNE,18,3.0,5.0,87,0.00,,,0.00,0.0,meteohub,2013-02-06 03:32:00,
2013-02-05 22:37:00,28.4,24.8,29.91,NNE,18,2.0,5.0,86,0.00,,,0.00,0.0,meteohub,2013-02-06 03:37:00,
2013-02-05 22:42:00,28.4,25.0,29.90,NNE,18,3.0,5.0,87,0.00,,,0.00,0.0,meteohub,2013-02-06 03:42:00,
2013-02-05 22:47:00,28.4,24.8,29.90,NNE,18,2.0,5.0,86,0.00,,,0.00,0.0,meteohub,2013-02-06 03:47:00,
2013-02-05 22:52:00,28.4,24.8,29.91,NNE,18,3.0,4.0,86,0.00,,,0.00,0.0,meteohub,2013-02-06 03:52:00,
2013-02-05 22:57:00,28.4,25.0,29.91,NNE,18,4.0,5.0,87,0.00,,,0.00,0.0,meteohub,2013-02-06 03:57:00,
2013-02-05 23:02:00,28.4,24.8,29.91,NNE,18,3.0,5.0,86,0.00,,,0.00,0.0,meteohub,2013-02-06 04:02:00,
2013-02-05 23:07:00,28.2,24.6,29.91,NE,48,4.0,5.0,86,0.00,,,0.00,0.0,meteohub,2013-02-06 04:07:00,
2013-02-05 23:12:00,28.2,24.6,29.91,North,5,3.0,5.0,86,0.00,,,0.00,0.0,meteohub,2013-02-06 04:12:00,
2013-02-05 23:17:00,28.2,24.6,29.91,North,5,3.0,5.0,86,0.00,,,0.00,0.0,meteohub,2013-02-06 04:17:00,
2013-02-05 23:22:00,28.2,24.8,29.91,NNW,335,1.0,6.0,87,0.00,,,0.00,0.0,meteohub,2013-02-06 04:22:00,
2013-02-05 23:27:00,28.2,24.8,29.92,NNW,335,2.0,6.0,87,0.00,,,0.00,0.0,meteohub,2013-02-06 04:27:00,
2013-02-05 23:32:00,28.2,24.6,29.92,NNW,338,0.0,6.0,86,0.00,,,0.00,0.0,meteohub,2013-02-06 04:32:00,
2013-02-05 23:37:00,28.4,24.8,29.92,NNW,338,0.0,6.0,86,0.00,,,0.00,0.0,meteohub,2013-02-06 04:37:00,
2013-02-05 23:42:00,28.6,25.0,29.92,NNW,340,2.0,6.0,86,0.00,,,0.00,0.0,meteohub,2013-02-06 04:42:00,
2013-02-05 23:48:00,28.6,25.0,29.92,NNW,340,4.0,6.0,86,0.00,,,0.00,0.0,meteohub,2013-02-06 04:48:00,
2013-02-05 23:53:00,28.6,25.2,29.92,NNW,340,0.0,6.0,87,0.00,,,0.00,0.0,meteohub,2013-02-06 04:53:00,
2013-02-05 23:58:00,28.6,25.0,29.92,NNW,340,2.0,6.0,86,0.00,,,0.00,0.0,meteohub,2013-02-06 04:58:00,